DLH59W EDDN-EDDH

Flight info

Callsign DLH59W
Flight time 0h 50m
Altitude 30000
Route ERETO1G/28 ERETO DCT LONLI M726 LASTO M852 LARET/N0417F340 M852 HLZ Z990 DIRBO/N0350F230 T902 RARUP RARUP6A
Aircraft A20N/M-SDE2E3FGHIRWXY/LB1

Departure

Time 2026-05-07 17:23
Airport Nuremberg Airport (EDDN)

Arrival

Time 2026-05-07 18:13
Airport Hamburg Helmut Schmidt Airport (EDDH)
Time Latitude Longitude Altitude Speed Heading
2026-05-07 17:08 49.49520 11.07725 1027 ft 0 kts 188°
2026-05-07 17:15 49.49526 11.07726 1027 ft 1 kts 188°
2026-05-07 17:15 49.49534 11.07728 1025 ft 1 kts 188°
2026-05-07 17:16 49.49541 11.07729 1026 ft 1 kts 190°
2026-05-07 17:16 49.49545 11.07730 1028 ft 1 kts 191°
2026-05-07 17:16 49.49552 11.07732 1028 ft 2 kts 189°
2026-05-07 17:16 49.49567 11.07736 1029 ft 2 kts 189°
2026-05-07 17:17 49.49576 11.07738 1029 ft 2 kts 189°
2026-05-07 17:17 49.49588 11.07742 1029 ft 3 kts 188°
2026-05-07 17:17 49.49607 11.07744 1030 ft 2 kts 184°
2026-05-07 17:17 49.49616 11.07745 1030 ft 0 kts 183°
2026-05-07 17:18 49.49617 11.07745 1030 ft 0 kts 183°
2026-05-07 17:18 49.49616 11.07745 1030 ft 0 kts 183°
2026-05-07 17:19 49.49613 11.07747 1030 ft 1 kts 168°
2026-05-07 17:19 49.49589 11.07780 1028 ft 8 kts 121°
2026-05-07 17:20 49.49574 11.07884 1030 ft 12 kts 98°
2026-05-07 17:20 49.49570 11.07920 1030 ft 9 kts 98°
2026-05-07 17:20 49.49557 11.08119 1029 ft 24 kts 89°
2026-05-07 17:20 49.49563 11.08336 1032 ft 14 kts 68°
2026-05-07 17:21 49.49599 11.08458 1032 ft 14 kts 92°
2026-05-07 17:21 49.49589 11.08632 1033 ft 18 kts 96°
2026-05-07 17:21 49.49572 11.08847 1036 ft 22 kts 103°
2026-05-07 17:21 49.49549 11.09073 1037 ft 20 kts 95°
2026-05-07 17:22 49.49536 11.09266 1040 ft 15 kts 97°
2026-05-07 17:22 49.49533 11.09324 1041 ft 3 kts 89°
2026-05-07 17:22 49.49591 11.09488 1042 ft 31 kts 46°
2026-05-07 17:22 49.49713 11.09522 1044 ft 16 kts 301°
2026-05-07 17:23 49.49731 11.09284 1042 ft 55 kts 278°
2026-05-07 17:23 49.49841 11.08146 1030 ft 153 kts 279°
2026-05-07 17:23 49.50024 11.06222 1386 ft 192 kts 278°
2026-05-07 17:23 49.50221 11.04266 2874 ft 184 kts 281°
2026-05-07 17:24 49.50427 11.02202 3959 ft 209 kts 280°
2026-05-07 17:24 49.50658 10.99872 5129 ft 231 kts 279°
2026-05-07 17:24 49.50912 10.97277 6102 ft 263 kts 279°
2026-05-07 17:24 49.51130 10.94360 6587 ft 273 kts 271°
2026-05-07 17:25 49.51075 10.91575 6710 ft 260 kts 270°
2026-05-07 17:25 49.51443 10.88871 6744 ft 263 kts 297°
2026-05-07 17:25 49.52617 10.86740 6947 ft 262 kts 320°
2026-05-07 17:25 49.54062 10.85021 6999 ft 263 kts 321°
2026-05-07 17:26 49.55503 10.83324 7002 ft 262 kts 321°
2026-05-07 17:26 49.56949 10.81619 7000 ft 263 kts 321°
2026-05-07 17:26 49.58406 10.79885 7094 ft 265 kts 321°
2026-05-07 17:26 49.59859 10.78154 7702 ft 268 kts 321°
2026-05-07 17:27 49.61500 10.76822 9032 ft 270 kts 343°
2026-05-07 17:27 49.63395 10.76493 10297 ft 279 kts 354°
2026-05-07 17:27 49.65418 10.76299 11027 ft 304 kts 354°
2026-05-07 17:27 49.67608 10.76079 11606 ft 328 kts 354°
2026-05-07 17:28 49.69936 10.75837 12525 ft 338 kts 354°
2026-05-07 17:28 49.72301 10.75579 13652 ft 344 kts 354°
2026-05-07 17:28 49.74713 10.75375 14610 ft 351 kts 358°
2026-05-07 17:28 49.77170 10.75427 15606 ft 356 kts 358°
2026-05-07 17:29 49.79666 10.75450 16558 ft 361 kts 358°
2026-05-07 17:29 49.82204 10.75481 17508 ft 367 kts 359°
2026-05-07 17:29 49.84774 10.75531 18434 ft 372 kts 359°
2026-05-07 17:29 49.87370 10.75593 19246 ft 377 kts 359°
2026-05-07 17:30 49.90020 10.75664 20090 ft 381 kts 359°
2026-05-07 17:30 49.91793 10.75712 20411 ft 392 kts 359°
2026-05-07 17:30 49.94593 10.75786 20639 ft 412 kts 359°
2026-05-07 17:30 49.98496 10.75894 20886 ft 432 kts 360°
2026-05-07 17:31 50.01560 10.75980 21060 ft 448 kts 360°
2026-05-07 17:31 50.03690 10.76040 21231 ft 457 kts 360°
2026-05-07 17:31 50.06855 10.76131 21780 ft 461 kts 360°
2026-05-07 17:31 50.10134 10.76225 22385 ft 465 kts 360°
2026-05-07 17:32 50.13325 10.76316 22941 ft 469 kts 360°
2026-05-07 17:32 50.16605 10.76409 23486 ft 473 kts
2026-05-07 17:32 50.19912 10.76501 23939 ft 477 kts 360°
2026-05-07 17:32 50.23244 10.76596 24420 ft 478 kts 360°
2026-05-07 17:33 50.26583 10.76690 24806 ft 481 kts
2026-05-07 17:33 50.29936 10.76785 25115 ft 483 kts
2026-05-07 17:33 50.33309 10.76882 25427 ft 484 kts
2026-05-07 17:33 50.36680 10.76978 25695 ft 485 kts
2026-05-07 17:34 50.39945 10.77071 26060 ft 483 kts
2026-05-07 17:34 50.43299 10.77166 26447 ft 481 kts
2026-05-07 17:34 50.46362 10.77254 26732 ft 481 kts
2026-05-07 17:34 50.49669 10.77349 27101 ft 479 kts
2026-05-07 17:35 50.52976 10.77444 27451 ft 478 kts
2026-05-07 17:35 50.56310 10.77539 27758 ft 478 kts
2026-05-07 17:35 50.59624 10.77635 28170 ft 475 kts
2026-05-07 17:35 50.62936 10.77730 28481 ft 475 kts
2026-05-07 17:36 50.66245 10.77826 28776 ft 475 kts
2026-05-07 17:36 50.69563 10.77924 28957 ft 478 kts
2026-05-07 17:36 50.72856 10.78019 29678 ft 463 kts
2026-05-07 17:36 50.75991 10.78111 29997 ft 442 kts
2026-05-07 17:37 50.82103 10.78288 30066 ft 444 kts
2026-05-07 17:37 50.88283 10.78465 30073 ft 444 kts 359°
2026-05-07 17:38 50.94461 10.78382 30077 ft 444 kts 359°
2026-05-07 17:38 51.00656 10.78367 30319 ft 448 kts 360°
2026-05-07 17:39 51.03816 10.78386 30854 ft 449 kts 359°
2026-05-07 17:39 51.06913 10.78410 31301 ft 452 kts 360°
2026-05-07 17:39 51.10093 10.78437 31855 ft 452 kts 360°
2026-05-07 17:39 51.13210 10.78464 32423 ft 452 kts 359°
2026-05-07 17:40 51.16356 10.78491 32967 ft 452 kts 359°
2026-05-07 17:40 51.19493 10.78517 33529 ft 451 kts 359°
2026-05-07 17:40 51.22633 10.78544 34080 ft 451 kts 359°
2026-05-07 17:40 51.25776 10.78570 34505 ft 451 kts 359°
2026-05-07 17:41 51.28926 10.78597 34869 ft 453 kts 359°
2026-05-07 17:41 51.32073 10.78623 35028 ft 452 kts 359°
2026-05-07 17:41 51.38367 10.78677 35063 ft 456 kts 359°
2026-05-07 17:42 51.44803 10.78730 35063 ft 469 kts 359°
2026-05-07 17:42 51.51333 10.78787 35065 ft 469 kts 359°
2026-05-07 17:43 51.57863 10.78843 35068 ft 470 kts 359°
2026-05-07 17:43 51.64402 10.78900 35067 ft 470 kts 359°
2026-05-07 17:44 51.70940 10.78956 35069 ft 469 kts 359°
2026-05-07 17:44 51.77474 10.79012 35070 ft 469 kts 359°
2026-05-07 17:45 51.83983 10.78746 34878 ft 467 kts 357°
2026-05-07 17:45 51.87189 10.78514 34445 ft 466 kts 357°
2026-05-07 17:45 51.90428 10.78289 33826 ft 464 kts 357°
2026-05-07 17:46 51.93635 10.78082 33144 ft 459 kts 357°
2026-05-07 17:46 51.96828 10.77887 32471 ft 459 kts 357°
2026-05-07 17:46 52.00030 10.77697 31815 ft 461 kts 357°
2026-05-07 17:46 52.03235 10.77509 31177 ft 458 kts 357°
2026-05-07 17:47 52.06401 10.77322 30553 ft 454 kts 357°
2026-05-07 17:47 52.09538 10.77139 29904 ft 449 kts 357°
2026-05-07 17:47 52.12656 10.76956 29187 ft 447 kts 357°
2026-05-07 17:47 52.15758 10.76773 28486 ft 445 kts 357°
2026-05-07 17:48 52.18838 10.76591 27815 ft 441 kts 357°
2026-05-07 17:48 52.21891 10.76411 27155 ft 437 kts 357°
2026-05-07 17:48 52.24917 10.76232 26502 ft 433 kts 357°
2026-05-07 17:48 52.27910 10.76054 25871 ft 429 kts 357°
2026-05-07 17:49 52.30845 10.75880 25353 ft 425 kts 357°
2026-05-07 17:49 52.33791 10.75704 25147 ft 424 kts 357°
2026-05-07 17:49 52.36757 10.75527 25102 ft 426 kts 357°
2026-05-07 17:49 52.39715 10.75350 25100 ft 426 kts 357°
2026-05-07 17:50 52.42677 10.75173 25099 ft 426 kts 357°
2026-05-07 17:50 52.45643 10.74995 25092 ft 426 kts 357°
2026-05-07 17:50 52.48606 10.74818 25090 ft 426 kts 357°
2026-05-07 17:50 52.51564 10.74641 24945 ft 423 kts 357°
2026-05-07 17:51 52.54516 10.74463 24518 ft 425 kts 357°
2026-05-07 17:51 52.57433 10.74288 23869 ft 423 kts 356°
2026-05-07 17:51 52.60360 10.74112 23072 ft 419 kts 356°
2026-05-07 17:51 52.63258 10.73937 22253 ft 414 kts 356°
2026-05-07 17:52 52.66122 10.73764 21459 ft 409 kts 357°
2026-05-07 17:52 52.68953 10.73592 20688 ft 405 kts 357°
2026-05-07 17:52 52.71756 10.73422 19947 ft 400 kts 357°
2026-05-07 17:52 52.74510 10.73255 19452 ft 390 kts 357°
2026-05-07 17:53 52.77166 10.73095 19032 ft 378 kts 357°
2026-05-07 17:53 52.79790 10.72937 18382 ft 375 kts 357°
2026-05-07 17:53 52.82385 10.72778 17656 ft 371 kts 357°
2026-05-07 17:53 52.84953 10.72621 16982 ft 367 kts 357°
2026-05-07 17:54 52.87495 10.72465 16322 ft 364 kts 357°
2026-05-07 17:54 52.90009 10.72311 15676 ft 360 kts 357°
2026-05-07 17:54 52.92497 10.72158 15046 ft 356 kts 357°
2026-05-07 17:54 52.94968 10.72005 14415 ft 354 kts 357°
2026-05-07 17:55 52.97425 10.71853 13797 ft 350 kts 358°
2026-05-07 17:55 52.99852 10.71704 13141 ft 347 kts 358°
2026-05-07 17:55 53.01445 10.71606 12700 ft 345 kts 358°
2026-05-07 17:55 53.04575 10.71414 12364 ft 326 kts 358°
2026-05-07 17:56 53.06783 10.71278 11977 ft 318 kts 358°
2026-05-07 17:56 53.08988 10.71143 11458 ft 316 kts 358°
2026-05-07 17:56 53.11168 10.71009 11152 ft 313 kts 358°
2026-05-07 17:56 53.13363 10.70873 10902 ft 316 kts 358°
2026-05-07 17:57 53.15553 10.70737 10655 ft 313 kts 358°
2026-05-07 17:57 53.16993 10.70648 10486 ft 312 kts 358°
2026-05-07 17:57 53.19865 10.70144 10167 ft 310 kts 341°
2026-05-07 17:57 53.21832 10.68681 10060 ft 310 kts 334°
2026-05-07 17:58 53.23779 10.67117 10030 ft 310 kts 334°
2026-05-07 17:58 53.25722 10.65555 10029 ft 309 kts 334°
2026-05-07 17:58 53.27632 10.64011 10029 ft 301 kts 334°
2026-05-07 17:58 53.29501 10.62445 10032 ft 301 kts 333°
2026-05-07 17:59 53.31383 10.60886 10035 ft 302 kts 334°
2026-05-07 17:59 53.33265 10.59342 10030 ft 301 kts 334°
2026-05-07 17:59 53.35131 10.57797 9943 ft 297 kts 332°
2026-05-07 17:59 53.36774 10.55755 9522 ft 295 kts 311°
2026-05-07 18:00 53.37955 10.52974 9041 ft 294 kts 304°
2026-05-07 18:00 53.39087 10.50104 8552 ft 292 kts 304°
2026-05-07 18:00 53.40189 10.47259 8076 ft 291 kts 304°
2026-05-07 18:00 53.41263 10.44443 7587 ft 290 kts 304°
2026-05-07 18:01 53.42343 10.41609 7165 ft 286 kts 304°
2026-05-07 18:01 53.43415 10.38800 7014 ft 288 kts 304°
2026-05-07 18:01 53.44493 10.35973 6979 ft 287 kts 304°
2026-05-07 18:01 53.45578 10.33140 6981 ft 289 kts 304°
2026-05-07 18:02 53.47757 10.27494 6990 ft 288 kts 304°
2026-05-07 18:02 53.48842 10.24686 6795 ft 286 kts 304°
2026-05-07 18:02 53.49920 10.21877 6395 ft 285 kts 304°
2026-05-07 18:03 53.50990 10.19089 5917 ft 283 kts 304°
2026-05-07 18:03 53.52060 10.16310 5425 ft 283 kts 303°
2026-05-07 18:03 53.52771 10.13268 5093 ft 281 kts 278°
2026-05-07 18:03 53.52594 10.10015 5009 ft 287 kts 251°
2026-05-07 18:04 53.51615 10.07089 4996 ft 284 kts 234°
2026-05-07 18:04 53.50493 10.04405 4997 ft 284 kts 234°
2026-05-07 18:04 53.49361 10.01690 4998 ft 284 kts 234°
2026-05-07 18:04 53.48227 9.98972 4999 ft 284 kts 234°
2026-05-07 18:05 53.47092 9.96251 4998 ft 284 kts 234°
2026-05-07 18:05 53.45955 9.93533 5000 ft 284 kts 234°
2026-05-07 18:05 53.44823 9.90825 5000 ft 284 kts 234°
2026-05-07 18:05 53.43687 9.88112 4982 ft 283 kts 234°
2026-05-07 18:06 53.42563 9.85427 4709 ft 281 kts 234°
2026-05-07 18:06 53.41443 9.82743 4283 ft 280 kts 236°
2026-05-07 18:06 53.40738 9.79724 3783 ft 280 kts 262°
2026-05-07 18:06 53.40915 9.76528 3394 ft 274 kts 290°
2026-05-07 18:07 53.41919 9.73900 3085 ft 265 kts 319°
2026-05-07 18:07 53.43393 9.71973 2992 ft 270 kts 330°
2026-05-07 18:07 53.45126 9.71065 2997 ft 260 kts
2026-05-07 18:07 53.46764 9.71905 2999 ft 242 kts 33°
2026-05-07 18:08 53.48260 9.73689 2998 ft 279 kts 39°
2026-05-07 18:08 53.49730 9.75548 2860 ft 252 kts 36°
2026-05-07 18:08 53.51119 9.77143 2470 ft 232 kts 37°
2026-05-07 18:08 53.52259 9.78626 2461 ft 180 kts 42°
2026-05-07 18:09 53.53115 9.79848 2502 ft 155 kts 43°
2026-05-07 18:09 53.53872 9.80962 2537 ft 128 kts 45°
2026-05-07 18:09 53.54457 9.81908 2456 ft 116 kts 50°
2026-05-07 18:09 53.54998 9.82857 2326 ft 107 kts 50°
2026-05-07 18:10 53.55523 9.83838 2161 ft 120 kts 51°
2026-05-07 18:10 53.56082 9.84874 1987 ft 119 kts 52°
2026-05-07 18:10 53.56599 9.85919 1859 ft 115 kts 56°
2026-05-07 18:10 53.57110 9.86983 1637 ft 119 kts 54°
2026-05-07 18:11 53.57659 9.88085 1508 ft 125 kts 53°
2026-05-07 18:11 53.58006 9.88800 1414 ft 116 kts 54°
2026-05-07 18:11 53.58670 9.90211 1076 ft 111 kts 53°
2026-05-07 18:11 53.59163 9.91172 848 ft 105 kts 49°
2026-05-07 18:12 53.59647 9.92128 745 ft 107 kts 51°
2026-05-07 18:12 53.60132 9.93029 653 ft 102 kts 49°
2026-05-07 18:12 53.60585 9.93902 501 ft 97 kts 50°
2026-05-07 18:12 53.61017 9.94775 370 ft 106 kts 50°
2026-05-07 18:13 53.61503 9.95737 255 ft 107 kts 52°
2026-05-07 18:13 53.61957 9.96661 101 ft 99 kts 50°
2026-05-07 18:13 53.62367 9.97484 48 ft 81 kts 50°
2026-05-07 18:13 53.62595 9.97935 48 ft 33 kts 49°
2026-05-07 18:14 53.62742 9.98227 50 ft 33 kts 50°
2026-05-07 18:14 53.62915 9.98578 49 ft 42 kts 50°
2026-05-07 18:14 53.63094 9.98940 50 ft 35 kts 50°
2026-05-07 18:14 53.63245 9.99245 52 ft 34 kts 50°
2026-05-07 18:15 53.63290 9.99507 49 ft 9 kts 104°
2026-05-07 18:15 53.63278 9.99618 50 ft 0 kts 97°
2026-05-07 18:16 53.63277 9.99618 50 ft 0 kts 97°
2026-05-07 18:16 53.63277 9.99619 50 ft 0 kts 97°
2026-05-07 18:17 53.63276 9.99635 50 ft 4 kts 97°
2026-05-07 18:17 53.63274 9.99665 50 ft 0 kts 97°
2026-05-07 18:18 53.63273 9.99683 50 ft 8 kts 97°
2026-05-07 18:18 53.63284 9.99824 49 ft 15 kts 38°
2026-05-07 18:18 53.63366 9.99940 50 ft 7 kts 46°
2026-05-07 18:18 53.63421 10.00048 50 ft 6 kts 56°
2026-05-07 18:19 53.63438 10.00095 50 ft 10 kts 59°
2026-05-07 18:19 53.63439 10.00164 50 ft 10 kts 123°
2026-05-07 18:19 53.63374 10.00235 50 ft 6 kts 110°
2026-05-07 18:19 53.63372 10.00319 50 ft 6 kts 85°
2026-05-07 18:20 53.63374 10.00339 50 ft 0 kts 85°